"Pseudo-MPEC" for P10LjSU

Created 2019 Jan 14 11:18:27 UT using Find_Orb

Click here for an explanation of pseudo-MPECs

 
 Astrometry: 
     P10LjSU  C2019 01 10=^c^[hv'#l=B3cT_ZuAstrometry6;XLRV#f6K^N4vcWR`^V,UxsF51
     P10LjSU  C2019 01 10GnOsF+SILCt0Lb`5s9O1I[fGredacted;/^-gjh\7\f1\qd+CbY-F51
     P10LjSU  C2019 01 10S[0hG1w`reP`!hwgSY_=?\YxDmtlqD-J%q8\6@TUqnV9EDl%]cx?F51
     P10LjSU  C2019 01 10-Ip1(AJ.#:)1oK9Ko+*Rn\Lclickk3i(^Sia#UiE%QsZ4h4nmMscF51
     P10LjSU KC2019 01 11LMe.erRLu-otf!w_5e'J3tQ,]dd-yY(K,G4L?fRoMHC9#@R8_YbrH21
     P10LjSU KC2019 01 11R1VZ6=\JiUjAJ=CnVFh._(A!Tuog@'erhere8u,)lhS[DDWH;TprH21
     P10LjSU KC2019 01 11oOQeqqF6C91OB$rO9pMJriYi;Z\ONW+C`6bWacm*Y4x7,M*U/txhH21
     P10LjSU |C2019 01 130N'Kdj\-*0ccDaforT*h8`wG[uiRhk,1O_WA#!$)..nqKlXYwq]x807
     P10LjSU |C2019 01 13.WM]Mf:oi;MM#[ut`g,?a6_cN2LSN40!q8gfa1'4^+I3Y/f(?'ru807
     P10LjSU |C2019 01 13'vg(mYpYt';explanation.?1RY@,yKuFW$y?[o.b6Xv0_7?X7P0807

Station data:
(807) Cerro Tololo Observatory, La Serena  (S30.169136 W70.805900)  Chile.
   1.5-m Ritchey-Chrétien.
(F51) Pan-STARRS 1, Haleakala  (N20.707235 W156.255910)  US/Hawaii.
   Observers N. Primak, A. Schultz, S. Watters, J. Thiel, T. Goggia. Measurer
   PS1 Science Consortium. 1.8-m Ritchey-Chrétien + CCD.
(H21) Astronomical Research Observatory, Westfield  (N39.483057 W87.968270)
   US/Illinois. 0.76-m f/3.0 astrograph + CCD.

Orbital elements:  P10LjSU
   Perihelion 2019 Mar 21.742320 +/- 3.77 TT = 17:48:56 (JD 2458564.242320)
Epoch 2019 Jan 13.0 TT = JDT 2458496.5   Earth MOID: 0.8153   AutoNEOCP
M 343.90022046 +/- 1.4              (J2000 ecliptic)
n   0.23766206 +/- 0.0112           Peri.  220.18317 +/- 2.5
a   2.58124645 +/- 0.0813           Node   253.18547 +/- 0.18
e   0.3284273 +/- 0.0184            Incl.   35.06976 +/- 0.6
P   4.15                   H 19.3   G  0.15   U  9.7  
q 1.73349445 +/- 0.0246    Q 3.42899845 +/- 0.153
From 10 observations 2019 Jan. 10-13; mean residual 0".15
Residuals in arcseconds: 
190110 F51  .13+  .10+    190111 H21  .10+  .03-    190113 807  .02-  .00     
190110 F51  .00   .04-    190111 H21  .02+  .12-    190113 807  .17+  .05-    
190110 F51  .15+  .28+    190111 H21  .10-  .17+    
190110 F51  .31-  .35-    190113 807  .16-  .04+    

Ephemerides (geocentric):
Date (UTC) HH   RA              Dec         delta   r     elong  mag " sig PA
---- -- -- --  -------------   -----------  ------ ------ -----  --- ---- ---
2019 01 14 11  03 20 13.615   +10 47 29.21  1.1326 1.8018 116.6 22.2 1.39  89
2019 01 14 12  03 20 15.131   +10 46 39.72  1.1330 1.8017 116.5 22.2 1.44  89
2019 01 14 13  03 20 16.652   +10 45 50.29  1.1334 1.8016 116.5 22.2 1.49  89
2019 01 14 14  03 20 18.176   +10 45 00.92  1.1337 1.8015 116.4 22.2 1.54  89
2019 01 14 15  03 20 19.704   +10 44 11.59  1.1341 1.8014 116.4 22.2 1.60  89
2019 01 14 16  03 20 21.235   +10 43 22.32  1.1344 1.8014 116.4 22.2 1.65  89
2019 01 14 17  03 20 22.769   +10 42 33.11  1.1348 1.8013 116.3 22.2 1.71  88
2019 01 14 18  03 20 24.308   +10 41 43.94  1.1351 1.8012 116.3 22.2 1.77  88
2019 01 14 19  03 20 25.850   +10 40 54.83  1.1355 1.8011 116.2 22.2 1.83  88
2019 01 14 20  03 20 27.395   +10 40 05.78  1.1358 1.8010 116.2 22.2 1.88  88
2019 01 14 21  03 20 28.944   +10 39 16.77  1.1362 1.8010 116.2 22.2 1.94  88
2019 01 14 22  03 20 30.497   +10 38 27.82  1.1365 1.8009 116.1 22.2 2.00  88
2019 01 14 23  03 20 32.053   +10 37 38.92  1.1369 1.8008 116.1 22.2 2.06  88
2019 01 15 00  03 20 33.613   +10 36 50.08  1.1372 1.8007 116.0 22.2 2.13  88
2019 01 15 01  03 20 35.176   +10 36 01.29  1.1376 1.8006 116.0 22.2 2.19  88
2019 01 15 02  03 20 36.743   +10 35 12.55  1.1379 1.8005 116.0 22.2 2.25  88
2019 01 15 03  03 20 38.313   +10 34 23.86  1.1383 1.8005 115.9 22.2 2.31  88
2019 01 15 04  03 20 39.887   +10 33 35.23  1.1387 1.8004 115.9 22.2 2.38  88
2019 01 15 05  03 20 41.465   +10 32 46.65  1.1390 1.8003 115.8 22.2 2.45  88
2019 01 15 06  03 20 43.046   +10 31 58.12  1.1394 1.8002 115.8 22.2 2.51  87
2019 01 15 07  03 20 44.630   +10 31 09.65  1.1397 1.8001 115.8 22.2 2.58  87
2019 01 15 08  03 20 46.218   +10 30 21.23  1.1401 1.8001 115.7 22.2 2.65  87
2019 01 15 09  03 20 47.810   +10 29 32.86  1.1404 1.8000 115.7 22.2 2.71  87
2019 01 15 10  03 20 49.405   +10 28 44.55  1.1408 1.7999 115.6 22.2 2.78  87
2019 01 15 11  03 20 51.004   +10 27 56.28  1.1411 1.7998 115.6 22.2 2.85  87
2019 01 15 12  03 20 52.606   +10 27 08.07  1.1415 1.7997 115.6 22.2 2.93  87
2019 01 15 13  03 20 54.212   +10 26 19.92  1.1419 1.7996 115.5 22.2 3.00  87
2019 01 15 14  03 20 55.821   +10 25 31.81  1.1422 1.7996 115.5 22.2 3.07  87
2019 01 15 15  03 20 57.434   +10 24 43.76  1.1426 1.7995 115.4 22.2 3.14  87
2019 01 15 16  03 20 59.050   +10 23 55.76  1.1429 1.7994 115.4 22.2 3.22  87
2019 01 15 17  03 21 00.670   +10 23 07.81  1.1433 1.7993 115.4 22.2 3.29  87
2019 01 15 18  03 21 02.293   +10 22 19.92  1.1436 1.7992 115.3 22.2 3.37  87
2019 01 15 19  03 21 03.920   +10 21 32.08  1.1440 1.7992 115.3 22.2 3.44  87
2019 01 15 20  03 21 05.550   +10 20 44.29  1.1443 1.7991 115.2 22.2 3.52  87
2019 01 15 21  03 21 07.184   +10 19 56.55  1.1447 1.7990 115.2 22.2 3.60  87
2019 01 15 22  03 21 08.822   +10 19 08.86  1.1451 1.7989 115.2 22.2 3.68  87
2019 01 15 23  03 21 10.462   +10 18 21.23  1.1454 1.7988 115.1 22.2 3.76  87
2019 01 16 00  03 21 12.107   +10 17 33.65  1.1458 1.7988 115.1 22.2 3.84  87
2019 01 16 01  03 21 13.755   +10 16 46.12  1.1461 1.7987 115.0 22.2 3.92  87
2019 01 16 02  03 21 15.406   +10 15 58.65  1.1465 1.7986 115.0 22.2 4.00  87
2019 01 16 03  03 21 17.061   +10 15 11.22  1.1469 1.7985 115.0 22.2 4.08  86
2019 01 16 04  03 21 18.719   +10 14 23.85  1.1472 1.7984 114.9 22.2 4.17  86
2019 01 16 05  03 21 20.381   +10 13 36.53  1.1476 1.7983 114.9 22.2 4.25  86
2019 01 16 06  03 21 22.046   +10 12 49.26  1.1479 1.7983 114.8 22.2 4.33  86
2019 01 16 07  03 21 23.714   +10 12 02.05  1.1483 1.7982 114.8 22.2 4.42  86
2019 01 16 08  03 21 25.387   +10 11 14.89  1.1486 1.7981 114.8 22.2 4.51  86
2019 01 16 09  03 21 27.062   +10 10 27.77  1.1490 1.7980 114.7 22.2 4.59  86
2019 01 16 10  03 21 28.741   +10 09 40.71  1.1494 1.7979 114.7 22.2 4.68  86